CONSULTA PERSONALIZADA Alfaro
      Predicción AEMET      
Valores extremos - medios de hoy
Fecha T (C) P (l/m2) Hr (%) Rs (W/m2) VV (km/h) DV Tint.(C)
Max Med Min Acu Med Med Max Med Max Med Min
 28-05-2022   28,8   17,7   13,0   0,0   67   406   28,8   320   26,6   23,5   21,4 
Datos de hoy
Fecha T (C) P (l/m2) Hr (%) Rs (W/m2) VV (km/h) DV Tint.(C)
Max Med Min Acu Med Med Max Med Max Med Min
 28-05-2022 16:15:00   28,8   28,2   27,6   0,0   31   911   24,8   333   26,6   26,4   26,3 
 28-05-2022 16:00:00   28,2   27,6   27,3   0,0   33   942   28,8   320   26,3   26,1   25,9 
 28-05-2022 15:45:00   27,9   27,3   26,7   0,0   34   966   27,0   317   25,9   25,7   25,6 
 28-05-2022 15:30:00   27,6   26,8   26,3   0,0   36   989   23,4   316   25,6   25,5   25,3 
 28-05-2022 15:15:00   27,2   26,5   26,0   0,0   37   1.007   24,5   323   25,3   25,2   25,1 
 28-05-2022 15:00:00   26,3   25,9   25,5   0,0   39   1.023   25,2   327   25,1   24,9   24,8 
 28-05-2022 14:45:00   25,9   25,4   24,9   0,0   40   1.036   20,9   326   24,8   24,7   24,5 
 28-05-2022 14:30:00   25,6   25,1   24,5   0,0   42   1.043   24,1   334   24,5   24,4   24,3 
 28-05-2022 14:15:00   25,7   24,7   23,9   0,0   43   1.048   24,1   318   24,3   24,1   24,0 
 28-05-2022 14:00:00   24,9   24,1   23,7   0,0   45   1.047   20,2   322   24,0   23,9   23,8 
 28-05-2022 13:45:00   24,1   23,5   23,1   0,0   46   1.037   24,8   323   23,8   23,7   23,5 
 28-05-2022 13:30:00   24,0   23,2   22,7   0,0   47   1.035   23,4   316   23,5   23,4   23,3 
 28-05-2022 13:15:00   23,1   22,4   21,9   0,0   49   1.019   25,6   318   23,4   23,3   23,2 
 28-05-2022 13:00:00   22,7   22,0   21,5   0,0   50   1.004   23,4   319   23,2   23,1   23,0 
 28-05-2022 12:45:00   22,3   21,6   21,0   0,0   51   984   25,9   320   23,0   22,9   22,8 
 28-05-2022 12:30:00   21,6   21,1   20,7   0,0   52   960   26,3   326   22,8   22,7   22,6 
 28-05-2022 12:15:00   21,1   20,6   20,3   0,0   53   931   23,8   318   22,6   22,6   22,5 
 28-05-2022 12:00:00   20,8   20,2   19,9   0,0   54   899   23,0   325   22,5   22,4   22,4 
 28-05-2022 11:45:00   20,4   19,9   19,6   0,0   55   864   23,4   329   22,4   22,3   22,2 
 28-05-2022 11:30:00   20,3   19,6   19,1   0,0   57   830   21,6   332   22,2   22,1   22,1 
 28-05-2022 11:15:00   19,5   18,9   18,6   0,0   59   793   25,2   333   22,1   22,0   21,9 
 28-05-2022 11:00:00   19,2   18,8   18,4   0,0   60   752   27,0   327   21,9   21,8   21,8 
 28-05-2022 10:45:00   18,5   18,2   17,9   0,0   62   712   22,0   325   21,8   21,7   21,7 
 28-05-2022 10:30:00   18,5   17,9   17,6   0,0   64   669   23,0   321   21,7   21,6   21,6 
 28-05-2022 10:15:00   17,9   17,6   17,2   0,0   65   624   23,0   316   21,6   21,6   21,5 
 28-05-2022 10:00:00   17,9   17,3   17,0   0,0   66   578   27,4   316   21,6   21,5   21,5 
 28-05-2022 09:45:00   17,0   16,6   16,4   0,0   70   529   24,5   320   21,5   21,5   21,5 
 28-05-2022 09:30:00   16,7   16,3   16,1   0,0   72   478   20,5   323   21,5   21,4   21,4 
 28-05-2022 09:15:00   16,2   15,7   15,3   0,0   74   429   24,5   318   21,5   21,4   21,4 
 28-05-2022 09:00:00   15,5   15,2   15,0   0,0   76   377   23,0   325   21,6   21,5   21,4 
 28-05-2022 08:45:00   15,0   14,7   14,4   0,0   78   326   22,3   316   21,6   21,5   21,5 
 28-05-2022 08:30:00   14,5   14,2   14,1   0,0   80   275   23,0   323   21,6   21,5   21,5 
 28-05-2022 08:15:00   14,1   13,9   13,6   0,0   82   225   21,6   323   21,7   21,6   21,5 
 28-05-2022 08:00:00   13,6   13,5   13,4   0,0   84   178   19,8   320   21,8   21,7   21,6 
 28-05-2022 07:45:00   13,4   13,3   13,2   0,0   85   134   20,9   316   21,9   21,8   21,8 
 28-05-2022 07:30:00   13,2   13,1   13,1   0,0   86   93   20,9   316   22,0   21,9   21,9 
 28-05-2022 07:15:00   13,1   13,1   13,0   0,0   86   50   18,4   318   22,1   22,1   22,0 
 28-05-2022 07:00:00   13,2   13,1   13,1   0,0   86   17   18,4   317   22,3   22,2   22,1 
 28-05-2022 06:45:00   13,3   13,2   13,1   0,0   86   5   21,6   316   22,4   22,4   22,3 
 28-05-2022 06:30:00   13,4   13,3   13,2   0,0   86   0   19,4   317   22,6   22,5   22,4 
 28-05-2022 06:15:00   13,3   13,3   13,2   0,0   86   0   17,6   314   22,8   22,7   22,6 
 28-05-2022 06:00:00   13,3   13,2   13,2   0,0   87   0   14,8   318   22,9   22,8   22,8 
 28-05-2022 05:45:00   13,3   13,3   13,2   0,0   86   0   16,9   320   23,1   23,0   22,9 
 28-05-2022 05:30:00   13,4   13,4   13,3   0,0   86   0   15,1   315   23,2   23,1   23,1 
 28-05-2022 05:15:00   13,6   13,5   13,4   0,0   85   0   16,9   316   23,2   23,2   23,2 
 28-05-2022 05:00:00   13,8   13,7   13,6   0,0   84   0   18,7   322   23,3   23,3   23,2 
 28-05-2022 04:45:00   14,1   13,9   13,8   0,0   83   0   22,0   323   23,5   23,4   23,3 
 28-05-2022 04:30:00   14,1   14,0   14,0   0,0   82   0   24,5   324   23,7   23,5   23,4 
 28-05-2022 04:15:00   14,2   14,1   14,0   0,0   82   0   22,7   323   23,8   23,8   23,7 
 28-05-2022 04:00:00   14,4   14,3   14,2   0,0   81   0   23,0   323   24,0   23,9   23,8 
 28-05-2022 03:45:00   14,6   14,5   14,4   0,0   80   0   23,4   317   24,2   24,1   24,0 
 28-05-2022 03:30:00   14,8   14,7   14,6   0,0   79   0   23,0   317   24,2   24,2   24,1 
 28-05-2022 03:15:00   14,9   14,9   14,7   0,0   78   0   24,8   320   24,5   24,4   24,2 
 28-05-2022 03:00:00   15,1   15,0   14,9   0,0   77   0   26,3   320   24,6   24,5   24,4 
 28-05-2022 02:45:00   15,1   15,0   14,9   0,0   78   0   25,2   320   24,8   24,7   24,6 
 28-05-2022 02:30:00   15,0   14,9   14,9   0,0   78   0   23,8   321   25,0   24,9   24,8 
 28-05-2022 02:15:00   15,4   15,2   15,0   0,0   76   0   23,0   319   25,2   25,1   25,0 
 28-05-2022 02:00:00   15,6   15,5   15,4   0,0   75   0   25,2   317   25,4   25,3   25,2 
 28-05-2022 01:45:00   15,8   15,7   15,5   0,0   74   0   22,0   315   25,6   25,5   25,4 
 28-05-2022 01:30:00   16,0   15,9   15,8   0,0   73   0   27,4   316   25,6   25,6   25,5 
 28-05-2022 01:15:00   16,3   16,2   16,0   0,0   71   0   25,6   314   25,9   25,8   25,6 
 28-05-2022 01:00:00   16,4   16,3   16,2   0,0   69   0   25,6   312   26,0   25,9   25,9 
 28-05-2022 00:45:00   16,6   16,5   16,4   0,0   69   0   25,9   314   26,1   26,1   26,0 
 28-05-2022 00:30:00   16,7   16,6   16,5   0,0   68   0   28,1   314   26,2   26,1   26,0 
 28-05-2022 00:15:00   16,8   16,7   16,6   0,0   68   0   27,7   316   26,3   26,3   26,2 
 28-05-2022 00:00:00   17,0   16,8   16,8   0,0   67   0   27,0   318   26,5   26,4   26,3 
Datos diarios
Fecha desde Fecha hasta       Visualizar         Exportar Excel  
     
Alfaro - Fecha desde: 21-05-2022 - Fecha hasta: 27-05-2022
Fecha T (C) P (l/m2) Hr (%) Rs (W/m2) VV (km/h) DV Tint.(C)
Max Med Min Acu Med Med Max Med Max Med Min
 27-05-2022   25,5   18,4   12,5   0,0   61   376   43,6   318   27,2   22,9   19,5 
 26-05-2022   22,3   16,3   11,3   0,0   61   376   48,6   333   24,2   21,0   17,9 
 25-05-2022   19,4   14,7   11,7   0,0   56   314   58,3   314   22,2   19,9   18,0 
 24-05-2022   16,7   14,4   12,9   0,0   62   99   46,8   307   27,4   22,9   20,5 
 23-05-2022   24,2   19,1   14,9   0,0   65   321   41,8   237   31,7   28,4   26,4 
 22-05-2022   31,7   26,3   20,9   0,0   39   172   33,8   162   34,3   31,7   29,5 
 21-05-2022   33,9   26,1   17,2   0,0   37   283   30,2   141   34,7   31,0   27,8 
Datos mensuales
        Exportar      
   
Alfaro
Fecha T (C) P (l/m2) Hr (%) Rs (W/m2) VV (km/h) DV Tint.(C)
Max Med Min Acu Med Med Max Med Max Med Min
 Mayo -2022   33,9   19,2   8,7   9,2   56   288   58,3   232   35,7   25,1   14,7 
 Abril -2022   24,3   12,0   0,0   32,1   68   218   53,3   254   25,7   16,9   6,2 
 Marzo -2022   18,0   10,0   2,5   22,7   75   127   46,1   192   29,3   22,3   13,0 
 Febrero -2022   19,7   9,2   0,1   0,0   67   137   54,4   267   29,9   21,9   15,6 
 Enero -2022   18,5   6,0   -2,4   5,3   74   103   57,6   262   24,6   18,9   12,9 
 Diciembre -2021   17,4   6,9   0,2   12,8   90   45   52,6   228   27,0   19,2   14,7 
 Noviembre -2021   17,8   9,2   1,3   45,3   76   90   54,7   292   24,1   16,0   9,7 
 Octubre -2021   24,8   14,8   4,2   15,7   69   151   46,8   238   26,8   19,9   13,5 
 Septiembre-2021   31,9   20,0   11,6   61,1   70   194   40,3   216   34,8   26,2   18,0 
 Agosto -2021   38,9   22,5   12,6   0,7   58   294   59,8   237   40,4   29,4   20,7 
 Julio -2021   38,7   22,6   12,7   2,9   55   310   68,0   245   41,0   29,3   21,2 
 Junio -2021   34,3   20,4   10,7   38,8   62   303   61,2   222   37,4   27,1   17,8 
PARÁMETROS
Desc. Abr. Descripción
T Temperatura del aire
P Precipitación acumulada
Hr Humedad relativa del aire
Rs Radiación solar
VV Velocidad del viento
DV Dirección del viento
Tint Temperatura interior
 
FUNCIONES
Desc. Abr. Descripción
Max Máxima
Med Media
Min Mínima
Acu Acumulado